Temp
-11 -11 -11 -12 -12 -12 -12 -12 -12 -12 -12 -12 -12 -12 -12 -12 -12 -12 -12 -12 -12 -11 -11 -10 -11 -11 -11 -11 -11 -11 -10 -9 -10 -10 -10 -9 -9 -9 -10 -9 -10 -9 -9 -9 -9 -9 -9 -9 -9 -10 -9 -9 -8 -8
-13 -13 -13 -13 -13 -13 -13 -13 -13 -13 -13 -13 -13 -13 -13 -13 -13 -13 -13 -12 -12 -12 -12 -12 -12 -12 -12 -12 -12 -12 -12 -11 -11 -11 -11 -10 -10 -10 -10 -10 -11 -11 -11 -11 -10 -10 -9 -9 -9 -10 -10 -8 -8 -8
-14 -14 -14 -14 -14 -14 -15 -15 -15 -14 -14 -14 -14 -14 -14 -14 -14 -14 -14 -14 -14 -14 -13 -13 -12 -13 -13 -13 -13 -12 -13 -13 -12 -12 -11 -11 -10 -11 -11 -11 -12 -12 -12 -12 -12 -11 -12 -10 -10 -10 -9 -7 -7 -8
-15 -16 -16 -16 -16 -16 -16 -16 -16 -16 -16 -15 -15 -15 -15 -15 -15 -15 -15 -15 -15 -15 -14 -13 -14 -13 -13 -13 -13 -13 -13 -13 -13 -13 -13 -13 -12 -13 -12 -12 -11 -12 -13 -12 -11 -10 -11 -12 -9 -8 -8 -8 -7 -8
-17 -17 -17 -18 -18 -18 -18 -18 -17 -17 -17 -16 -16 -16 -15 -15 -15 -16 -16 -15 -15 -15 -15 -15 -15 -15 -14 -15 -15 -15 -15 -14 -14 -14 -14 -14 -14 -14 -12 -12 -11 -11 -12 -12 -12 -12 -11 -11 -10 -8 -7 -7 -7 -8
-18 -18 -19 -20 -20 -19 -19 -19 -18 -18 -17 -17 -17 -16 -16 -16 -16 -16 -16 -15 -15 -15 -15 -15 -15 -15 -15 -16 -16 -16 -16 -15 -15 -15 -15 -15 -15 -14 -13 -12 -12 -12 -11 -10 -10 -10 -9 -10 -9 -8 -7 -7 -7 -7
-19 -20 -20 -20 -20 -20 -19 -19 -19 -18 -18 -17 -17 -17 -17 -16 -16 -16 -15 -15 -15 -15 -15 -15 -15 -15 -15 -16 -16 -16 -15 -16 -16 -17 -16 -16 -15 -15 -14 -13 -12 -13 -14 -12 -11 -11 -10 -10 -9 -8 -7 -6 -7 -7
-19 -20 -20 -20 -20 -20 -20 -19 -18 -18 -17 -17 -17 -17 -17 -16 -16 -16 -15 -15 -15 -15 -15 -15 -16 -16 -16 -16 -16 -15 -16 -16 -17 -17 -17 -17 -16 -16 -15 -14 -13 -13 -13 -12 -12 -12 -11 -11 -10 -9 -8 -6 -7 -8
-18 -19 -19 -19 -19 -19 -19 -18 -18 -18 -17 -17 -17 -17 -17 -16 -16 -16 -15 -15 -15 -15 -16 -16 -16 -16 -16 -16 -15 -15 -16 -17 -17 -17 -18 -17 -17 -16 -14 -14 -14 -14 -14 -12 -12 -11 -10 -10 -9 -8 -8 -7 -7 -7
-18 -18 -18 -18 -18 -18 -18 -18 -18 -17 -17 -17 -17 -17 -17 -16 -16 -16 -15 -16 -16 -16 -16 -16 -16 -16 -16 -16 -16 -17 -17 -17 -17 -17 -17 -16 -16 -16 -15 -15 -15 -15 -14 -12 -12 -11 -11 -10 -10 -9 -8 -8 -7 -7
-17 -17 -17 -17 -17 -17 -17 -17 -17 -17 -17 -17 -17 -16 -16 -16 -16 -16 -16 -16 -16 -16 -16 -16 -16 -16 -16 -17 -16 -17 -17 -17 -17 -17 -16 -16 -16 -16 -15 -15 -15 -15 -14 -13 -12 -12 -11 -10 -9 -9 -9 -8 -7 -7
-16 -16 -17 -17 -17 -17 -17 -17 -17 -17 -17 -17 -16 -17 -16 -16 -16 -16 -16 -16 -16 -16 -16 -16 -16 -16 -16 -17 -17 -17 -17 -16 -16 -17 -16 -16 -16 -16 -15 -15 -15 -15 -14 -14 -13 -12 -11 -11 -10 -10 -9 -9 -8 -7
-16 -16 -16 -16 -16 -16 -16 -17 -17 -17 -17 -17 -17 -16 -16 -16 -16 -16 -16 -16 -16 -16 -16 -16 -16 -16 -16 -16 -16 -16 -16 -16 -16 -16 -16 -15 -15 -15 -15 -14 -14 -14 -14 -14 -13 -13 -13 -12 -11 -10 -9 -9 -9 -8
-15 -15 -15 -15 -16 -16 -16 -16 -16 -16 -16 -16 -16 -16 -16 -16 -16 -16 -16 -16 -16 -16 -16 -16 -16 -15 -15 -15 -15 -15 -15 -15 -15 -16 -16 -16 -16 -16 -15 -15 -15 -14 -13 -13 -13 -13 -13 -12 -12 -11 -10 -10 -9 -8
-15 -15 -15 -15 -15 -15 -15 -15 -16 -16 -16 -16 -16 -16 -16 -16 -16 -16 -16 -16 -16 -16 -16 -16 -16 -15 -15 -15 -16 -15 -15 -16 -16 -16 -15 -16 -15 -15 -15 -15 -14 -14 -13 -13 -12 -12 -13 -13 -12 -11 -11 -11 -10 -9
-15 -15 -15 -15 -15 -15 -15 -15 -16 -16 -16 -16 -16 -16 -16 -16 -16 -16 -16 -16 -16 -16 -16 -16 -16 -15 -15 -15 -16 -16 -16 -16 -16 -16 -16 -16 -16 -15 -15 -15 -14 -14 -13 -13 -13 -12 -12 -12 -12 -12 -12 -12 -11 -10
-15 -15 -15 -15 -15 -15 -15 -15 -15 -15 -15 -16 -16 -16 -16 -16 -16 -16 -16 -16 -16 -16 -16 -15 -15 -15 -15 -16 -16 -16 -16 -16 -16 -16 -15 -15 -15 -14 -14 -14 -14 -14 -14 -13 -13 -12 -12 -12 -13 -13 -12 -11 -11 -11
-14 -14 -15 -15 -15 -15 -15 -15 -15 -15 -16 -16 -16 -16 -16 -16 -16 -16 -16 -16 -15 -15 -15 -15 -15 -15 -15 -15 -15 -16 -16 -15 -15 -15 -15 -14 -14 -14 -14 -13 -13 -14 -14 -13 -12 -12 -12 -13 -13 -12 -13 -12 -12 -12
-15 -15 -15 -15 -15 -15 -15 -15 -16 -16 -16 -16 -16 -15 -15 -15 -15 -15 -15 -15 -15 -15 -15 -15 -15 -15 -15 -15 -15 -15 -15 -14 -14 -14 -14 -14 -14 -14 -14 -13 -13 -13 -13 -13 -13 -13 -13 -13 -12 -14 -14 -12 -12 -11
-15 -15 -15 -14 -15 -16 -16 -16 -16 -16 -16 -16 -16 -16 -16 -15 -15 -15 -15 -15 -16 -15 -16 -15 -15 -15 -14 -15 -15 -14 -14 -14 -14 -14 -14 -14 -14 -13 -13 -13 -13 -13 -13 -13 -13 -14 -15 -15 -16 -16 -15 -13 -12 -11
-15 -15 -15 -15 -15 -15 -16 -16 -16 -16 -16 -16 -16 -16 -15 -15 -16 -15 -15 -15 -15 -15 -15 -15 -15 -15 -15 -14 -14 -14 -14 -14 -14 -14 -14 -14 -14 -13 -13 -13 -13 -13 -13 -14 -14 -14 -15 -16 -17 -16 -14 -13 -11 -11
-14 -15 -15 -15 -16 -15 -16 -16 -16 -16 -16 -16 -16 -15 -15 -16 -15 -15 -15 -15 -15 -15 -15 -15 -15 -15 -15 -14 -14 -14 -14 -14 -14 -14 -14 -14 -13 -13 -13 -13 -13 -13 -13 -14 -14 -15 -15 -14 -14 -13 -13 -12 -11 -11
-15 -15 -15 -15 -15 -15 -15 -16 -16 -16 -16 -16 -16 -16 -16 -16 -16 -15 -15 -15 -15 -15 -15 -14 -14 -14 -14 -13 -14 -14 -14 -14 -14 -14 -14 -13 -13 -13 -13 -12 -12 -13 -14 -14 -14 -13 -14 -14 -13 -12 -12 -11 -11 -11
-15 -15 -15 -16 -16 -16 -16 -16 -15 -15 -15 -15 -15 -16 -16 -15 -15 -15 -15 -15 -15 -15 -14 -14 -14 -13 -13 -14 -14 -14 -14 -14 -14 -13 -13 -13 -13 -13 -12 -12 -12 -13 -13 -13 -13 -13 -13 -12 -12 -12 -12 -12 -12 -12
-14 -15 -15 -16 -16 -16 -15 -15 -16 -15 -15 -15 -15 -15 -15 -15 -15 -15 -15 -15 -15 -15 -14 -14 -14 -14 -14 -14 -14 -14 -14 -14 -13 -13 -13 -13 -13 -13 -12 -12 -12 -11 -12 -12 -12 -13 -12 -13 -13 -12 -12 -12 -12 -12
-14 -15 -15 -15 -15 -15 -15 -15 -16 -16 -15 -15 -15 -15 -15 -15 -14 -14 -15 -15 -15 -15 -15 -15 -14 -14 -14 -14 -14 -13 -13 -13 -13 -13 -13 -13 -13 -12 -13 -12 -12 -11 -11 -11 -11 -10 -12 -12 -12 -12 -12 -12 -11 -12
-14 -14 -15 -15 -15 -15 -15 -15 -15 -15 -15 -16 -16 -15 -15 -14 -15 -15 -15 -15 -15 -15 -15 -15 -15 -14 -14 -14 -14 -14 -13 -13 -13 -13 -13 -12 -12 -12 -12 -12 -12 -11 -11 -11 -11 -11 -10 -10 -11 -9 -11 -10 -10 -11
-14 -15 -15 -15 -15 -15 -15 -15 -15 -15 -14 -15 -15 -14 -14 -14 -15 -15 -15 -14 -15 -14 -14 -15 -14 -14 -14 -14 -14 -14 -14 -14 -13 -13 -12 -13 -13 -12 -12 -12 -12 -12 -12 -12 -11 -11 -11 -11 -11 -10 -10 -10 -10 -9
-14 -14 -14 -14 -14 -15 -15 -15 -15 -15 -15 -15 -15 -15 -15 -15 -15 -15 -15 -14 -14 -14 -14 -14 -14 -14 -14 -14 -14 -14 -14 -14 -14 -14 -13 -13 -13 -13 -12 -12 -12 -12 -12 -12 -12 -12 -11 -11 -11 -11 -11 -10 -10 -9
-15 -14 -14 -14 -14 -15 -15 -14 -15 -14 -15 -15 -15 -15 -15 -15 -15 -15 -15 -15 -14 -14 -15 -15 -15 -14 -14 -14 -14 -14 -14 -14 -14 -14 -14 -14 -13 -14 -13 -13 -13 -12 -12 -12 -12 -12 -12 -12 -12 -12 -11 -11 -11 -11
-14 -14 -14 -15 -14 -15 -15 -15 -14 -15 -15 -15 -15 -15 -15 -15 -15 -15 -15 -14 -15 -15 -15 -15 -15 -15 -15 -15 -15 -15 -15 -14 -14 -15 -14 -14 -14 -14 -14 -13 -13 -13 -13 -13 -13 -13 -12 -12 -12 -12 -12 -12 -12 -12
-14 -14 -14 -15 -14 -15 -15 -15 -15 -15 -15 -15 -15 -15 -15 -15 -15 -15 -15 -15 -15 -15 -15 -15 -15 -15 -15 -15 -15 -15 -15 -15 -15 -15 -15 -15 -14 -14 -14 -14 -14 -14 -14 -14 -14 -13 -13 -13 -13 -13 -13 -13 -13 -12
-14 -15 -15 -15 -15 -15 -15 -15 -15 -15 -15 -15 -15 -15 -15 -15 -15 -15 -15 -15 -15 -15 -15 -15 -16 -16 -16 -16 -15 -16 -15 -15 -15 -15 -15 -15 -15 -16 -15 -15 -15 -14 -14 -14 -14 -14 -14 -14 -14 -14 -14 -13 -13 -13
Height
5736 5731 5726 5721 5718 5715 5712 5711 5710 5708 5708 5708 5708 5708 5707 5708 5708 5709 5708 5709 5710 5710 5710 5711 5714 5715 5718 5722 5725 5725 5732 5737 5747 5752 5757 5763 5768 5776 5782 5788 5795 5801 5806 5810 5816 5820 5825 5836 5840 5842 5844 5844 5848 5852
5719 5713 5708 5703 5700 5697 5696 5694 5693 5693 5693 5693 5694 5694 5694 5695 5695 5695 5696 5696 5696 5695 5696 5697 5698 5701 5704 5707 5712 5714 5720 5721 5727 5737 5741 5747 5754 5761 5769 5773 5785 5789 5798 5801 5806 5813 5820 5826 5830 5829 5829 5828 5838 5845
5702 5696 5691 5686 5683 5680 5679 5678 5677 5678 5678 5679 5681 5682 5683 5683 5684 5684 5683 5683 5682 5682 5684 5685 5687 5691 5692 5695 5699 5704 5705 5705 5710 5718 5725 5734 5741 5746 5752 5761 5770 5778 5786 5789 5794 5802 5811 5811 5817 5814 5819 5821 5833 5837
5685 5678 5672 5667 5664 5663 5662 5663 5663 5664 5666 5667 5669 5671 5672 5672 5674 5673 5673 5673 5673 5674 5674 5676 5679 5680 5681 5684 5686 5690 5691 5695 5700 5706 5711 5717 5725 5731 5736 5741 5748 5762 5768 5775 5780 5786 5790 5796 5799 5802 5810 5815 5826 5831
5667 5659 5652 5647 5645 5645 5647 5649 5651 5653 5655 5657 5659 5660 5662 5664 5664 5665 5666 5666 5667 5669 5669 5671 5670 5671 5671 5673 5674 5676 5678 5682 5686 5689 5694 5699 5705 5711 5717 5724 5732 5743 5748 5753 5763 5771 5782 5785 5784 5789 5800 5808 5815 5823
5651 5641 5633 5629 5629 5632 5635 5638 5640 5643 5646 5648 5650 5652 5654 5655 5657 5658 5660 5660 5661 5662 5663 5664 5665 5664 5664 5665 5665 5666 5668 5669 5671 5674 5680 5684 5691 5693 5698 5706 5718 5727 5735 5740 5746 5752 5759 5768 5770 5776 5786 5796 5804 5811
5640 5629 5623 5621 5621 5624 5627 5630 5633 5636 5638 5641 5643 5644 5647 5649 5650 5652 5654 5655 5656 5658 5659 5658 5658 5658 5658 5658 5658 5659 5659 5659 5660 5661 5665 5670 5674 5678 5684 5692 5703 5714 5718 5725 5733 5741 5750 5760 5764 5764 5773 5788 5797 5803
5635 5626 5621 5618 5619 5622 5625 5627 5629 5631 5633 5636 5638 5640 5641 5643 5645 5647 5648 5650 5651 5652 5653 5653 5652 5653 5652 5652 5651 5651 5649 5649 5650 5651 5653 5657 5661 5665 5669 5687 5691 5699 5706 5715 5722 5730 5737 5744 5749 5753 5755 5768 5782 5788
5637 5631 5626 5624 5624 5624 5625 5626 5627 5629 5631 5633 5635 5636 5637 5639 5642 5643 5644 5646 5647 5649 5648 5647 5646 5647 5647 5646 5644 5642 5642 5642 5644 5646 5646 5648 5651 5658 5674 5671 5678 5687 5692 5696 5705 5711 5718 5727 5732 5740 5747 5752 5767 5775
5642 5636 5632 5629 5628 5627 5626 5627 5628 5629 5630 5632 5633 5635 5636 5637 5639 5641 5642 5643 5643 5643 5642 5641 5641 5642 5642 5641 5639 5639 5638 5638 5640 5642 5641 5643 5648 5652 5656 5661 5668 5671 5677 5682 5690 5698 5704 5711 5720 5727 5735 5742 5751 5760
5647 5642 5637 5634 5632 5630 5629 5629 5630 5630 5631 5632 5634 5635 5636 5637 5638 5638 5639 5640 5640 5640 5639 5639 5639 5639 5639 5640 5640 5639 5638 5638 5638 5639 5640 5642 5645 5645 5648 5653 5658 5662 5668 5673 5678 5685 5691 5696 5705 5713 5720 5726 5736 5744
5653 5648 5643 5640 5637 5635 5633 5633 5632 5632 5633 5635 5635 5636 5636 5636 5637 5638 5638 5639 5639 5639 5638 5638 5638 5638 5639 5639 5639 5640 5639 5639 5639 5639 5639 5640 5642 5643 5645 5648 5651 5655 5658 5662 5666 5672 5678 5682 5688 5695 5702 5711 5719 5728
5659 5654 5650 5646 5643 5640 5638 5637 5636 5635 5636 5636 5636 5636 5637 5638 5638 5638 5638 5638 5638 5638 5637 5638 5638 5638 5639 5639 5639 5639 5638 5638 5638 5638 5637 5636 5638 5639 5640 5642 5644 5646 5649 5652 5655 5657 5661 5666 5671 5677 5685 5693 5700 5710
5666 5661 5656 5652 5649 5646 5643 5641 5640 5639 5638 5638 5638 5638 5639 5638 5639 5639 5639 5638 5638 5638 5639 5639 5639 5639 5639 5639 5638 5637 5636 5635 5636 5635 5632 5632 5634 5634 5634 5634 5634 5634 5636 5639 5642 5644 5647 5651 5656 5660 5666 5672 5681 5691
5672 5667 5663 5658 5655 5652 5649 5647 5645 5643 5642 5641 5641 5640 5640 5640 5640 5639 5639 5638 5639 5640 5639 5639 5638 5637 5636 5635 5634 5634 5633 5633 5631 5630 5630 5628 5626 5625 5623 5622 5620 5621 5621 5622 5625 5628 5632 5635 5638 5644 5648 5654 5663 5672
5676 5672 5668 5664 5660 5657 5653 5650 5648 5646 5645 5644 5643 5642 5641 5641 5641 5640 5639 5639 5641 5640 5640 5640 5638 5636 5635 5634 5633 5630 5629 5628 5627 5624 5620 5617 5616 5614 5612 5610 5609 5607 5606 5605 5605 5608 5611 5615 5619 5625 5628 5635 5643 5651
5679 5675 5671 5667 5663 5660 5656 5654 5651 5649 5647 5645 5645 5643 5643 5642 5642 5641 5640 5641 5642 5642 5640 5639 5637 5635 5633 5631 5630 5627 5626 5625 5622 5618 5614 5611 5609 5607 5604 5601 5600 5596 5593 5590 5588 5588 5589 5592 5596 5600 5608 5616 5623 5632
5680 5676 5672 5668 5663 5660 5657 5655 5653 5652 5650 5649 5647 5646 5645 5645 5644 5643 5641 5642 5642 5641 5639 5638 5636 5634 5631 5629 5627 5625 5623 5619 5616 5612 5609 5605 5601 5597 5594 5591 5589 5585 5580 5576 5575 5573 5570 5569 5570 5575 5583 5592 5602 5614
5681 5676 5671 5665 5661 5658 5656 5655 5654 5652 5652 5651 5650 5649 5648 5647 5646 5645 5643 5643 5643 5641 5638 5636 5634 5632 5629 5627 5626 5624 5621 5618 5614 5611 5608 5604 5598 5593 5586 5581 5578 5575 5573 5568 5562 5557 5553 5548 5545 5543 5550 5566 5585 5600
5682 5678 5674 5668 5664 5660 5658 5656 5654 5653 5653 5653 5652 5651 5650 5649 5648 5647 5645 5643 5642 5640 5637 5635 5632 5630 5628 5627 5626 5624 5621 5618 5615 5611 5606 5600 5594 5587 5581 5576 5572 5569 5564 5556 5542 5538 5528 5513 5504 5506 5522 5546 5572 5591
5685 5682 5678 5674 5670 5667 5666 5662 5660 5657 5656 5655 5655 5654 5653 5651 5650 5649 5647 5644 5642 5640 5637 5634 5632 5631 5629 5628 5627 5626 5623 5620 5616 5611 5604 5599 5593 5585 5579 5571 5566 5562 5557 5549 5542 5531 5515 5504 5496 5495 5519 5543 5568 5587
5691 5687 5682 5679 5678 5675 5672 5669 5666 5664 5663 5662 5660 5658 5656 5654 5652 5651 5648 5645 5643 5641 5639 5638 5635 5633 5631 5630 5630 5629 5626 5621 5617 5612 5606 5600 5594 5586 5576 5568 5564 5562 5559 5553 5547 5538 5528 5519 5517 5527 5539 5557 5575 5588
5696 5690 5688 5687 5684 5681 5679 5676 5673 5671 5670 5667 5665 5664 5661 5658 5656 5655 5652 5649 5647 5646 5644 5641 5638 5636 5635 5634 5633 5631 5628 5625 5620 5614 5608 5602 5596 5588 5579 5573 5568 5567 5563 5560 5555 5550 5546 5545 5548 5554 5564 5575 5585 5593
5704 5701 5697 5693 5689 5686 5685 5683 5679 5676 5674 5673 5671 5669 5666 5663 5661 5659 5657 5655 5653 5651 5650 5647 5646 5642 5641 5639 5637 5635 5632 5628 5624 5620 5614 5606 5600 5591 5585 5580 5576 5575 5571 5568 5567 5565 5565 5567 5571 5576 5581 5587 5592 5596
5713 5710 5704 5698 5696 5694 5692 5688 5686 5683 5681 5679 5677 5675 5671 5669 5666 5664 5663 5661 5660 5657 5655 5652 5650 5649 5646 5644 5642 5639 5636 5633 5628 5623 5619 5613 5605 5598 5591 5587 5586 5582 5581 5579 5577 5578 5579 5581 5583 5587 5592 5597 5600 5606
5717 5714 5710 5708 5706 5703 5699 5697 5694 5688 5685 5685 5683 5681 5680 5677 5674 5669 5668 5667 5665 5663 5660 5657 5654 5652 5650 5647 5644 5642 5638 5636 5632 5628 5623 5618 5614 5609 5603 5599 5595 5591 5593 5590 5587 5582 5587 5588 5591 5595 5599 5602 5603 5608
5723 5720 5718 5716 5713 5711 5708 5705 5702 5700 5695 5690 5689 5688 5685 5682 5678 5676 5676 5673 5669 5667 5664 5661 5658 5655 5653 5650 5647 5645 5642 5639 5635 5632 5629 5625 5621 5618 5612 5608 5606 5603 5603 5601 5599 5597 5592 5597 5598 5599 5603 5605 5598 5610
5727 5725 5724 5722 5719 5717 5715 5712 5710 5706 5702 5699 5699 5694 5689 5686 5686 5684 5682 5680 5676 5672 5669 5666 5664 5661 5658 5654 5651 5648 5644 5642 5638 5635 5633 5631 5628 5624 5620 5616 5613 5612 5612 5611 5609 5605 5605 5605 5606 5608 5608 5612 5614 5615
5730 5728 5726 5725 5724 5723 5720 5718 5714 5712 5710 5707 5704 5701 5697 5695 5693 5691 5688 5685 5679 5677 5675 5673 5671 5668 5665 5661 5656 5652 5649 5646 5644 5642 5638 5635 5633 5631 5627 5626 5624 5622 5620 5618 5617 5616 5614 5613 5612 5614 5616 5618 5616 5619
5732 5731 5729 5728 5727 5727 5725 5723 5720 5718 5714 5712 5710 5706 5704 5701 5698 5695 5693 5690 5687 5685 5682 5679 5676 5674 5670 5666 5661 5657 5653 5651 5648 5645 5643 5640 5637 5634 5632 5631 5628 5626 5626 5625 5623 5622 5621 5620 5618 5619 5617 5618 5619 5621
5734 5733 5732 5730 5729 5729 5727 5726 5724 5721 5718 5715 5713 5711 5709 5705 5701 5698 5696 5692 5689 5685 5684 5681 5678 5675 5673 5671 5668 5664 5660 5657 5653 5650 5648 5645 5642 5640 5638 5635 5634 5631 5629 5628 5627 5626 5625 5624 5623 5623 5623 5624 5624 5624
5735 5734 5733 5732 5731 5730 5728 5726 5725 5723 5721 5718 5716 5714 5711 5708 5705 5702 5699 5694 5690 5687 5684 5682 5678 5676 5675 5671 5669 5667 5664 5661 5658 5655 5652 5650 5648 5646 5643 5640 5638 5636 5634 5632 5629 5628 5627 5626 5625 5625 5625 5624 5625 5626
5735 5735 5734 5733 5732 5730 5729 5728 5726 5723 5722 5719 5717 5714 5711 5708 5705 5702 5698 5695 5692 5689 5686 5683 5681 5680 5675 5673 5670 5668 5665 5661 5659 5656 5654 5652 5650 5648 5647 5645 5643 5640 5638 5636 5634 5632 5631 5629 5628 5626 5624 5624 5624 5623
Wind_Speed
48 47 47 47 46 45 45 44 42 41 40 38 36 34 33 33 33 33 34 34 35 37 41 43 42 45 47 47 50 55 58 60 56 55 56 55 56 56 54 49 42 43 46 48 45 44 42 32 29 19 24 34 33 34
49 47 47 47 47 46 44 43 41 40 39 38 35 32 31 31 31 31 32 33 34 34 35 34 35 37 38 40 42 47 49 56 55 57 60 60 59 57 57 55 47 43 33 39 45 41 38 37 38 37 37 44 40 38
49 49 48 46 46 44 42 41 39 37 36 33 31 29 28 28 28 28 29 31 29 28 29 30 32 31 35 38 40 41 44 49 53 55 60 60 62 62 60 55 47 44 40 37 33 36 26 38 42 50 48 45 32 34
49 49 49 49 47 45 42 38 35 32 30 28 27 26 26 26 24 25 26 23 23 21 23 24 21 28 33 39 41 44 47 46 45 45 49 54 60 56 60 61 58 51 43 51 48 43 47 46 52 55 53 47 36 30
49 50 50 47 43 39 36 31 29 27 26 24 24 24 23 22 20 20 18 17 15 14 16 14 18 19 22 26 30 36 41 47 47 47 48 52 55 59 67 67 68 62 61 58 59 52 48 53 58 58 52 47 42 37
49 48 40 34 30 28 25 22 21 22 22 22 21 20 19 19 17 17 18 18 16 16 14 12 12 13 18 19 22 23 27 32 42 48 47 50 52 60 66 69 67 64 64 66 67 63 65 62 63 60 55 49 46 44
41 35 27 21 17 15 14 15 16 17 16 16 16 17 16 16 16 18 16 14 16 17 15 15 15 16 14 14 19 24 27 32 34 40 46 49 50 54 60 68 69 63 62 64 63 60 60 55 57 61 59 50 44 44
34 28 19 12 5 7 8 8 9 11 10 10 11 12 13 12 11 12 13 11 12 14 13 13 15 16 18 19 21 25 26 28 28 31 35 41 47 49 54 51 58 59 61 61 60 59 59 57 60 62 65 59 51 50
30 25 17 11 8 5 3 4 5 5 6 6 7 9 7 10 8 8 9 12 13 13 15 17 18 16 14 17 18 18 19 21 25 26 30 34 38 39 33 43 46 49 52 60 62 65 65 63 63 64 64 62 54 53
25 21 16 13 10 8 6 3 1 1 1 3 2 2 2 3 3 4 7 8 12 14 13 14 12 12 11 8 5 3 9 20 26 25 23 24 22 27 34 37 35 42 48 57 60 63 65 65 63 63 63 62 57 55
25 21 18 15 12 10 8 6 4 3 2 3 2 2 1 2 4 4 5 6 7 7 6 5 4 6 7 7 6 3 3 3 4 10 13 10 13 23 27 29 32 38 41 47 52 56 62 65 66 65 64 64 60 57
26 23 21 18 16 13 11 9 8 6 6 5 3 3 4 3 2 1 1 2 1 1 4 4 4 5 5 5 4 3 4 4 6 10 9 9 14 16 18 21 25 29 34 40 44 48 53 59 61 64 66 64 63 62
25 24 22 20 18 17 15 13 10 6 4 2 3 1 6 5 5 6 4 3 2 2 1 1 0 1 2 4 6 8 9 9 8 7 11 15 11 15 19 21 23 26 29 34 37 42 47 52 57 62 66 68 67 68
24 24 23 21 20 18 17 15 14 12 11 9 8 7 6 5 4 4 5 4 3 3 4 5 4 4 4 5 8 9 9 8 5 9 16 19 18 20 23 27 30 33 34 35 38 42 46 48 53 58 63 68 71 72
22 22 22 22 21 19 18 16 14 12 11 12 11 8 6 6 6 3 2 1 1 3 2 0 1 2 4 6 8 8 9 10 14 19 20 24 27 26 29 33 38 39 41 41 44 45 45 49 55 57 58 61 65 70
18 18 19 17 17 17 17 15 14 11 9 7 9 9 7 6 5 4 2 1 3 2 3 3 5 7 7 8 10 14 17 19 21 23 25 26 21 17 19 23 26 27 31 37 44 48 51 54 56 58 62 63 65 67
16 16 19 17 15 14 13 15 13 13 12 10 10 10 9 9 7 6 4 6 8 8 6 4 4 6 7 8 10 13 14 15 17 19 23 20 17 22 25 24 23 23 28 33 40 48 51 55 59 60 62 64 66 67
18 18 19 19 16 12 10 9 9 10 11 12 12 11 10 9 8 7 6 8 10 10 10 7 7 8 9 12 13 15 17 17 19 19 23 24 22 25 27 16 19 23 26 27 33 37 38 46 55 62 64 62 63 60
21 21 22 20 17 13 11 7 5 6 7 8 8 8 9 8 8 8 8 8 10 12 12 11 9 11 12 13 14 15 14 15 16 15 19 25 24 29 24 20 17 24 31 22 32 38 44 46 54 60 66 70 64 58
21 21 22 21 21 20 15 12 9 6 5 6 7 9 11 11 10 9 9 10 9 11 13 14 13 11 8 12 13 9 9 14 23 25 25 27 36 34 25 23 21 24 24 25 17 21 28 35 41 39 54 61 65 51
23 22 22 22 22 23 25 26 24 21 20 18 18 19 16 17 16 15 12 11 12 14 15 14 12 10 10 8 7 7 12 21 25 29 30 30 36 27 30 18 11 11 19 17 20 19 19 8 6 27 45 54 57 50
23 19 21 23 21 21 25 27 26 19 16 17 19 19 20 18 14 14 15 14 13 14 16 16 13 11 10 8 8 10 12 16 22 26 30 33 33 25 33 19 13 15 12 12 14 21 22 17 28 30 39 50 47 43
27 27 23 20 22 23 23 22 20 23 18 21 20 21 21 20 19 16 17 17 14 18 21 18 16 15 13 12 12 16 17 19 22 25 29 29 30 28 22 16 11 8 11 13 16 21 24 26 29 34 41 40 36 35
28 29 22 24 28 28 24 24 25 24 18 17 21 21 20 18 19 23 28 26 20 18 21 20 18 17 13 12 11 17 17 23 23 24 28 27 32 31 32 18 9 12 16 20 23 25 24 26 26 28 29 29 28 31
27 30 35 31 26 24 27 24 19 17 20 17 17 23 28 30 27 25 24 22 22 23 22 19 16 18 19 20 18 16 16 17 20 21 19 20 26 31 27 25 22 16 15 15 20 24 25 25 25 24 24 25 27 28
27 32 35 35 37 35 34 34 39 29 15 12 19 19 20 18 20 22 20 21 19 18 17 20 14 16 17 18 15 11 11 14 19 21 23 22 19 17 23 26 24 15 16 18 16 19 18 24 25 24 24 23 25 26
20 23 24 26 29 28 28 31 32 33 38 39 34 27 24 23 24 21 21 18 20 20 20 21 22 15 11 12 13 15 13 14 17 17 17 20 23 18 16 20 23 22 17 14 9 5 12 26 27 22 24 24 28 30
13 16 17 20 21 23 25 25 22 24 29 30 27 28 32 32 29 24 23 23 20 21 21 21 18 20 21 20 17 16 15 13 12 14 16 17 16 19 18 14 22 19 19 16 15 11 12 7 10 15 18 24 18 21
11 13 15 16 17 17 22 24 24 26 24 25 24 24 26 25 24 23 22 22 24 24 22 21 20 18 16 16 18 19 18 20 20 19 15 12 16 14 16 15 15 14 11 9 11 8 11 6 5 14 15 18 20 21
9 10 11 11 10 12 15 18 19 21 24 24 25 23 24 24 24 24 23 22 20 20 20 20 20 20 20 20 20 20 20 20 19 18 19 17 15 16 14 13 12 11 12 11 8 8 8 6 8 7 8 7 3 8
7 7 9 10 10 11 12 14 12 15 17 17 19 21 23 24 25 25 24 23 22 22 22 24 26 23 20 20 19 20 18 18 19 19 17 16 15 16 14 13 13 12 11 9 8 8 7 6 6 5 4 3 2 1
2 3 5 6 8 9 8 10 11 11 13 15 17 21 23 23 23 22 21 21 21 21 17 21 20 20 22 21 18 17 16 17 17 17 17 16 15 14 14 13 12 11 11 11 10 9 9 8 6 4 4 5 5 6
2 2 4 5 5 6 8 9 10 11 14 18 21 20 21 24 24 20 18 18 17 16 11 10 17 19 13 17 17 16 18 19 20 17 15 16 15 15 14 12 11 10 10 9 9 7 6 5 5 6 7 8 10 12
Wind_Direction
297 293 290 288 285 283 281 279 278 277 275 274 273 272 272 272 272 271 271 269 268 267 266 263 257 252 250 246 242 241 241 241 238 235 234 232 232 229 230 230 229 233 231 231 232 233 228 195 203 224 217 224 215 217
301 297 293 290 286 284 282 279 277 274 272 272 271 270 270 271 272 272 273 275 274 267 262 255 252 250 247 246 244 245 245 247 244 235 232 231 231 231 230 231 223 218 225 237 232 236 237 222 209 212 218 223 219 217
303 299 295 291 288 285 282 279 276 274 272 270 267 265 266 267 268 272 277 280 276 265 256 254 253 252 247 245 245 245 247 246 246 240 236 235 234 229 228 229 221 214 208 218 229 226 218 234 220 227 227 238 223 221
304 300 295 290 284 280 277 276 273 270 267 261 259 260 260 263 266 272 273 271 272 262 255 255 255 250 249 249 249 248 247 248 248 246 242 239 234 232 231 224 222 212 212 218 224 216 209 218 230 232 230 235 227 223
309 306 299 290 280 275 274 272 270 265 261 256 254 255 259 261 262 267 254 261 255 256 260 256 251 262 258 258 255 250 247 247 243 241 239 236 231 232 233 230 231 220 216 218 216 218 220 222 233 237 235 233 233 225
315 312 306 295 281 272 269 267 264 258 256 255 256 255 254 251 257 240 256 255 252 269 258 253 265 268 259 257 250 251 253 251 247 242 238 237 236 231 230 229 230 232 232 234 231 227 228 224 233 237 234 229 229 230
327 323 315 306 289 269 260 257 257 255 253 256 254 249 245 245 251 254 250 250 250 249 259 273 276 280 281 268 253 259 265 254 253 245 238 235 234 233 233 232 231 228 230 232 233 234 238 239 241 245 244 234 233 231
348 346 342 335 300 258 277 275 263 255 246 240 245 242 250 248 244 235 237 248 253 258 266 277 281 272 269 268 274 273 263 256 253 245 239 236 233 233 233 233 234 235 234 235 239 239 239 235 234 235 241 236 230 231
4 7 13 19 16 4 312 290 275 251 226 244 251 260 248 209 255 252 241 253 264 269 279 280 277 273 270 277 277 272 250 249 245 240 235 233 230 233 233 234 235 233 234 237 233 235 235 233 234 234 237 241 234 232
8 12 16 16 12 10 9 9 349 186 231 275 238 214 210 211 220 247 266 269 278 284 277 274 271 263 264 272 295 281 258 246 242 238 235 237 232 229 230 233 229 227 226 233 236 235 237 237 237 239 239 238 237 234
16 18 20 22 24 26 32 47 45 20 71 113 113 94 40 314 278 260 271 285 287 284 285 278 260 246 233 236 242 224 246 253 223 227 230 231 222 223 228 230 227 229 229 231 236 239 240 240 239 239 240 239 236 233
20 25 28 30 33 36 35 33 43 69 93 68 71 40 29 20 66 77 7 328 308 320 310 271 247 244 238 240 233 278 293 284 251 253 263 253 237 241 235 230 226 228 231 233 234 235 238 241 242 241 240 240 239 236
29 32 34 36 40 45 50 52 52 55 32 343 306 25 48 77 80 64 59 48 19 341 323 186 58 255 239 234 260 278 283 285 269 259 243 242 238 235 240 240 243 239 236 236 234 236 235 236 239 241 240 241 241 237
26 26 28 34 36 40 43 46 47 50 47 49 50 68 62 61 71 62 55 58 57 55 57 40 24 349 315 292 287 286 287 282 269 247 249 250 253 260 260 258 255 250 245 241 237 235 237 235 236 236 237 237 237 238
24 31 35 37 38 40 41 43 44 47 52 56 58 62 63 62 69 73 56 352 25 61 82 163 244 252 256 272 283 289 280 280 274 265 262 263 265 266 256 260 260 260 258 254 246 236 234 238 236 233 235 236 235 234
23 26 25 27 32 32 31 31 31 31 30 34 36 40 44 58 62 61 49 356 11 353 339 329 315 309 292 289 281 274 273 279 288 293 288 290 291 291 287 269 263 268 264 260 255 250 243 238 236 236 235 233 231 231
11 8 11 12 9 15 23 26 32 47 52 53 57 63 62 68 65 56 34 45 52 52 48 34 342 315 316 316 310 307 313 319 317 319 320 317 276 274 274 271 279 292 277 264 252 248 249 245 241 239 235 233 234 230
360 355 349 345 345 348 353 9 32 50 61 63 72 67 61 60 62 54 34 41 39 33 21 7 340 326 317 316 317 316 326 327 334 334 329 326 328 312 305 297 298 296 296 255 258 265 260 252 242 239 237 231 224 223
0 360 2 3 0 357 355 356 29 38 57 55 50 48 46 43 39 31 17 24 6 350 345 346 339 327 314 314 325 335 350 354 351 346 351 349 332 339 331 326 313 310 301 283 277 261 258 257 255 247 232 223 220 214
24 22 25 25 31 44 39 36 23 24 22 28 44 51 49 41 28 13 4 5 356 347 342 343 339 338 324 327 347 19 4 12 16 8 0 2 353 353 337 318 304 295 311 327 329 289 303 279 256 241 219 209 207 206
39 41 40 44 54 55 54 53 51 58 69 76 69 56 46 41 33 23 7 352 351 4 356 357 358 357 359 20 46 50 11 4 11 1 357 354 355 356 345 320 326 322 339 327 335 346 345 337 260 173 178 186 191 195
37 46 49 51 51 50 53 59 55 56 67 62 51 37 38 39 35 31 32 36 34 33 39 52 41 33 24 36 66 32 5 358 359 1 348 348 358 353 341 336 310 325 348 4 21 37 50 82 121 144 160 171 176 184
43 47 53 53 54 56 49 47 45 45 67 58 60 63 48 41 42 46 52 52 63 70 45 46 49 48 60 72 56 44 29 10 358 351 352 3 6 16 19 12 38 60 61 69 71 75 79 91 123 143 155 164 175 188
55 55 59 68 60 54 49 40 44 55 80 70 56 63 56 51 55 67 62 59 60 54 42 60 53 55 52 53 48 22 10 7 4 2 4 5 3 26 47 50 42 78 83 85 90 92 102 118 130 145 155 167 179 174
62 61 60 58 61 55 47 50 53 50 58 57 60 69 76 82 75 71 59 53 61 59 54 39 47 53 51 52 47 34 14 3 5 10 8 5 1 13 46 55 65 104 106 99 110 108 112 116 123 129 140 153 163 168
74 66 65 61 59 60 64 59 51 59 68 68 51 56 66 69 69 66 56 51 45 44 37 29 38 54 51 33 24 19 13 14 10 12 20 28 33 32 32 41 58 120 115 93 122 139 136 139 137 144 153 161 174 181
70 65 61 55 53 57 60 60 59 56 59 61 57 63 65 60 55 45 42 42 39 38 36 33 35 35 34 27 22 24 30 20 14 13 23 50 48 49 40 41 47 95 97 117 38 94 95 156 175 161 159 171 174 179
65 60 56 54 55 50 47 52 51 53 52 53 51 53 57 57 56 52 50 50 48 43 36 35 31 36 37 38 32 29 29 24 23 20 34 40 36 40 43 46 48 64 51 49 46 55 215 231 200 157 177 181 187 184
71 66 61 53 48 49 47 46 47 49 51 47 47 50 51 48 43 39 39 39 46 47 42 40 42 43 39 36 33 32 30 33 33 25 26 26 29 32 49 63 49 54 45 41 55 67 79 125 159 211 219 201 188 192
82 75 67 57 47 49 49 50 48 45 45 43 38 37 35 33 34 32 29 28 34 39 36 32 31 32 36 39 38 35 33 34 33 31 32 33 35 40 37 40 40 41 44 49 46 50 55 64 82 83 55 37 98 197
84 72 62 61 63 53 41 41 38 26 32 21 19 15 17 17 16 12 11 12 11 13 21 24 19 16 21 24 26 28 25 30 34 37 38 34 29 34 28 25 25 25 29 28 24 24 40 48 44 47 55 46 38 356
82 81 49 40 36 29 22 21 11 4 10 7 359 5 11 5 359 357 358 356 356 1 15 342 346 353 8 4 12 17 17 20 22 25 29 32 35 31 23 14 19 22 26 21 10 3 354 349 351 346 332 320 299 278
4 341 339 342 348 351 2 2 357 356 350 336 336 341 346 349 352 359 5 7 6 7 12 2 348 0 348 346 2 4 10 4 3 359 6 6 3 3 5 7 13 15 16 10 10 1 355 341 333 329 317 302 294 291